Pinedale, WY

10:01 AM MST on February 20, 2017 (GMT -0700)
Wenz

Weather History for KPNA - February, 2012

Change the Weather History Date:

Thursday, February 9, 2012

  Actual Average (KBPI) Record (KBPI)
Temperature  
Mean Temperature 24 °F -  
Max Temperature 31 °F 22 °F 48 °F (1996)
Min Temperature 18 °F 0 °F -35 °F (1989)
Degree Days  
Heating Degree Days 40    
Moisture  
Dew Point 18 °F    
Average Humidity 76    
Maximum Humidity 84    
Minimum Humidity 63    
Precipitation  
Precipitation 0.00 in - - ()
Sea Level Pressure  
Sea Level Pressure 30.21 in    
Wind  
Wind Speed 16 mph (WNW)    
Max Wind Speed 23 mph    
Max Gust Speed 28 mph    
Visibility 10 miles    
Events      
Averages and records for this station are not official NWS values.
T = Trace of Precipitation, MM = Missing Value Source: NWS Daily Summary

Daily Weather History Graph

Daily Weather History Graph

Search for Another Location

Airport or City:

Trip Planner

Search our weather history database for the weather conditions in past years. The results will help you decide how hot, cold, wet, or windy it might be!

Date:

Astronomy

Feb. 09, 2012 Rise Set
Actual Time 7:25 AM MST 5:42 PM MST
Civil Twilight 6:55 AM MST 6:11 PM MST
Nautical Twilight 6:22 AM MST 6:45 PM MST
Astronomical Twilight 5:49 AM MST 7:18 PM MST
Moon 8:20 PM MST (2/9) 7:58 AM MST (2/9)
Length of Visible Light 11h 16m
Length of Day
10h 17m
Waning Gibbous, 95% of the Moon is Illuminated
Feb 9
Waning Gibbous
Feb 14
Last Quarter
Feb 21
New
Feb 29
First Quarter
Mar 8
Full

Hourly Weather History & Observations

Time (MST) Temp. Windchill Dew Point Humidity Pressure Visibility Wind Dir Wind Speed Gust Speed Precip Events Conditions
12:15 AM 19.8 °F 4.1 °F 15.6 °F 84% 30.21 in 10.0 mi WNW 19.6 mph - N/A   Clear
12:35 AM 19.0 °F 3.2 °F 14.7 °F 83% 30.20 in 10.0 mi NW 19.6 mph - N/A   Clear
12:55 AM 18.3 °F 3.6 °F 14.0 °F 83% 30.20 in 10.0 mi NW 16.1 mph - N/A   Clear
1:15 AM 18.1 °F 2.9 °F 14.0 °F 84% 30.21 in 10.0 mi WNW 17.3 mph - N/A   Clear
1:35 AM 18.7 °F 7.8 °F 14.2 °F 83% 30.21 in 10.0 mi West 9.2 mph - N/A   Clear
1:55 AM 19.4 °F 7.9 °F 14.9 °F 83% 30.21 in 10.0 mi WNW 10.4 mph - N/A   Clear
2:15 AM 20.5 °F 8.6 °F 15.6 °F 81% 30.21 in 10.0 mi West 11.5 mph - N/A   Clear
2:35 AM 20.5 °F 7.4 °F 15.8 °F 82% 30.21 in 10.0 mi West 13.8 mph 18.4 mph N/A   Clear
2:55 AM 18.3 °F 5.9 °F 14.0 °F 83% 30.21 in 10.0 mi West 11.5 mph - N/A   Clear
3:15 AM 18.3 °F 5.9 °F 14.0 °F 83% 30.21 in 10.0 mi West 11.5 mph - N/A   Clear
3:35 AM 18.3 °F 4.1 °F 13.5 °F 81% 30.20 in 10.0 mi WNW 15.0 mph - N/A   Clear
3:55 AM 18.9 °F 4.3 °F 13.6 °F 80% 30.20 in 10.0 mi NW 16.1 mph - N/A   Clear
4:15 AM 18.7 °F 4.6 °F 13.5 °F 80% 30.19 in 10.0 mi NW 15.0 mph - N/A   Clear
4:35 AM 19.4 °F 5.5 °F 13.8 °F 79% 30.19 in 10.0 mi WNW 15.0 mph - N/A   Clear
4:55 AM 20.7 °F 5.7 °F 15.3 °F 80% 30.19 in 10.0 mi WNW 18.4 mph - N/A   Clear
5:15 AM 21.9 °F 5.8 °F 16.5 °F 80% 30.19 in 10.0 mi NW 23.0 mph 27.6 mph N/A   Clear
5:35 AM 21.7 °F 5.9 °F 16.5 °F 80% 30.19 in 10.0 mi NW 21.9 mph - N/A   Clear
5:55 AM 21.0 °F 5.4 °F 16.2 °F 81% 30.19 in 10.0 mi NW 20.7 mph - N/A   Clear
6:15 AM 21.0 °F 5.0 °F 16.2 °F 81% 30.21 in 10.0 mi WNW 21.9 mph - N/A   Clear
6:35 AM 20.5 °F 5.5 °F 15.8 °F 82% 30.21 in 10.0 mi WNW 18.4 mph - N/A   Scattered Clouds
6:55 AM 20.7 °F 5.3 °F 16.0 °F 82% 30.21 in 10.0 mi WNW 19.6 mph - N/A   Scattered Clouds
7:15 AM 21.0 °F 7.1 °F 16.3 °F 82% 30.22 in 10.0 mi WNW 16.1 mph - N/A   Mostly Cloudy
7:35 AM 21.7 °F 10.2 °F 16.7 °F 81% 30.22 in 10.0 mi WNW 11.5 mph - N/A   Overcast
7:55 AM 20.7 °F 8.2 °F 15.6 °F 81% 30.22 in 10.0 mi WNW 12.7 mph - N/A   Mostly Cloudy
8:15 AM 22.3 °F 10.8 °F 17.1 °F 80% 30.22 in 10.0 mi WNW 11.5 mph - N/A   Scattered Clouds
8:35 AM 23.2 °F 10.8 °F 18.1 °F 81% 30.23 in 10.0 mi WNW 13.8 mph - N/A   Mostly Cloudy
8:55 AM 23.9 °F 12.3 °F 18.5 °F 80% 30.24 in 10.0 mi WNW 12.7 mph - N/A   Overcast
9:15 AM 24.3 °F 13.3 °F 18.3 °F 78% 30.24 in 10.0 mi WNW 11.5 mph - N/A   Scattered Clouds
9:35 AM 24.1 °F 13.7 °F 18.1 °F 78% 30.24 in 10.0 mi WNW 10.4 mph - N/A   Clear
9:55 AM 25.7 °F 15.7 °F 18.7 °F 75% 30.24 in 10.0 mi WNW 10.4 mph - N/A   Clear
10:15 AM 25.3 °F 15.3 °F 18.5 °F 75% 30.25 in 10.0 mi NW 10.4 mph - N/A   Scattered Clouds
10:35 AM 25.5 °F 15.5 °F 19.2 °F 77% 30.24 in 10.0 mi WNW 10.4 mph - N/A   Scattered Clouds
10:55 AM 26.6 °F 15.2 °F 19.8 °F 75% 30.24 in 10.0 mi WNW 13.8 mph - N/A   Clear
11:15 AM 27.5 °F 15.0 °F 20.7 °F 75% 30.24 in 10.0 mi WNW 17.3 mph - N/A   Clear
11:35 AM 28.4 °F 17.0 °F 21.4 °F 75% 30.25 in 10.0 mi WNW 15.0 mph 19.6 mph N/A   Clear
11:55 AM 29.3 °F 17.0 °F 21.9 °F 74% 30.24 in 10.0 mi NW 18.4 mph - N/A   Clear
12:15 PM 29.3 °F 16.6 °F 21.9 °F 74% 30.22 in 10.0 mi WNW 19.6 mph - N/A   Clear
12:35 PM 30.0 °F 17.9 °F 22.1 °F 72% 30.22 in 10.0 mi WNW 18.4 mph - N/A   Clear
12:55 PM 30.7 °F 17.8 °F 21.7 °F 69% 30.21 in 10.0 mi WNW 21.9 mph - N/A   Clear
1:15 PM 30.7 °F 18.5 °F 21.4 °F 68% 30.21 in 10.0 mi WNW 19.6 mph 26.5 mph N/A   Clear
1:35 PM 31.3 °F 20.3 °F 21.2 °F 66% 30.21 in 10.0 mi West 16.1 mph 21.9 mph N/A   Clear
1:55 PM 31.3 °F 19.5 °F 20.8 °F 65% 30.19 in 10.0 mi WNW 18.4 mph - N/A   Scattered Clouds
2:15 PM 31.5 °F 19.4 °F 20.5 °F 64% 30.19 in 10.0 mi WNW 19.6 mph - N/A   Scattered Clouds
2:35 PM 31.1 °F 20.1 °F 20.5 °F 65% 30.19 in 10.0 mi WNW 16.1 mph - N/A   Scattered Clouds
2:55 PM 31.6 °F 22.1 °F 20.3 °F 63% 30.19 in 10.0 mi West 12.7 mph 19.6 mph N/A   Clear
3:15 PM 30.7 °F 18.5 °F 20.3 °F 65% 30.19 in 10.0 mi WNW 19.6 mph 25.3 mph N/A   Clear
3:35 PM 30.0 °F 18.7 °F 20.3 °F 67% 30.19 in 10.0 mi WNW 16.1 mph - N/A   Clear
3:55 PM 29.7 °F 16.7 °F 20.1 °F 68% 30.19 in 10.0 mi WNW 20.7 mph - N/A   Clear
4:15 PM 29.1 °F 16.7 °F 19.2 °F 67% 30.20 in 10.0 mi WNW 18.4 mph - N/A   Clear
4:35 PM 29.1 °F 17.5 °F 18.5 °F 65% 30.20 in 10.0 mi WNW 16.1 mph - N/A   Clear
4:55 PM 27.5 °F 15.0 °F 18.1 °F 68% 30.19 in 10.0 mi WNW 17.3 mph - N/A   Clear
5:15 PM 26.1 °F 13.6 °F 17.4 °F 70% 30.19 in 10.0 mi WNW 16.1 mph - N/A   Clear
5:35 PM 24.6 °F 11.7 °F 16.5 °F 71% 30.20 in 10.0 mi WNW 16.1 mph - N/A   Clear
5:55 PM 24.1 °F 11.5 °F 15.8 °F 71% 30.21 in 10.0 mi WNW 15.0 mph - N/A   Clear
6:15 PM 22.1 °F 10.6 °F 14.9 °F 74% 30.21 in 10.0 mi WNW 11.5 mph - N/A   Clear
6:35 PM 22.1 °F 10.6 °F 14.9 °F 74% 30.21 in 10.0 mi WNW 11.5 mph - N/A   Clear
6:55 PM 22.6 °F 10.7 °F 15.4 °F 74% 30.21 in 10.0 mi WNW 12.7 mph - N/A   Clear
7:15 PM 22.1 °F 9.5 °F 15.4 °F 76% 30.21 in 10.0 mi West 13.8 mph - N/A   Clear
7:35 PM 20.1 °F 5.4 °F 14.0 °F 77% 30.21 in 10.0 mi WNW 17.3 mph - N/A   Clear
7:55 PM 20.1 °F 8.1 °F 13.8 °F 77% 30.22 in 10.0 mi WNW 11.5 mph - N/A   Clear
8:15 PM 18.7 °F 5.1 °F 13.3 °F 79% 30.22 in 10.0 mi WNW 13.8 mph - N/A   Clear
8:35 PM 16.5 °F 4.3 °F 11.5 °F 81% 30.22 in 10.0 mi NW 10.4 mph - N/A   Clear
8:55 PM 17.2 °F 1.7 °F 12.2 °F 81% 30.22 in 10.0 mi WNW 17.3 mph - N/A   Clear
9:15 PM 16.0 °F 1.1 °F 10.9 °F 81% 30.22 in 10.0 mi NW 15.0 mph - N/A   Clear
9:35 PM 14.5 °F -0.2 °F 10.2 °F 83% 30.22 in 10.0 mi NW 13.8 mph - N/A   Clear
9:55 PM 14.0 °F -0.2 °F 9.0 °F 80% 30.22 in 10.0 mi NNW 12.7 mph - N/A   Clear
10:15 PM 12.7 °F -2.5 °F 7.7 °F 80% 30.22 in 10.0 mi NW 13.8 mph - N/A   Clear
10:35 PM 10.9 °F -1.8 °F 5.9 °F 80% 30.21 in 10.0 mi NW 9.2 mph - N/A   Clear
10:55 PM 14.4 °F -1.5 °F 8.6 °F 78% 30.20 in 10.0 mi WNW 16.1 mph - N/A   Clear
11:15 PM 13.8 °F -0.5 °F 9.0 °F 81% 30.19 in 10.0 mi WNW 12.7 mph - N/A   Scattered Clouds
11:35 PM 12.9 °F -3.4 °F 7.7 °F 80% 30.19 in 10.0 mi NW 16.1 mph - N/A   Scattered Clouds
11:55 PM 12.2 °F -2.5 °F 7.3 °F 81% 30.19 in 10.0 mi NNW 12.7 mph - N/A   Clear